Regional Weather Roundup
Issued by NWS Upton, NY

Current Version | Previous Version | Graphics & Text | Print | Product List | Glossary Off
Versions: 1 2 3 4 5 6 7 8 9 10 11 12 13 14 15 16 17 18 19 20 21 22 23 24 25 26 27 28 29 30 31 32 33 34 35 36 37 38 39 40 41 42 43 44 45 46 47 48 49 50

000
ASUS41 KOKX 261018
RWROKX

REGIONAL WEATHER ROUNDUP
NATIONAL WEATHER SERVICE NEW YORK NY
600 AM EDT TUE MAY 26 2015

NOTE: "FAIR" INDICATES FEW OR NO CLOUDS BELOW 12,000 FEET WITH NO
SIGNIFICANT WEATHER AND/OR OBSTRUCTIONS TO VISIBILITY.

NYZ071-072-176-178-NJZ106-104-261100-
NEW YORK CITY METRO AREA


CITY           SKY/WX    TMP DP  RH WIND       PRES   REMARKS
CENTRAL PARK   CLEAR     67  54  63 W8G18     30.22R
LAGUARDIA APRT PTCLDY    67  54  63 SW8       30.19S
KENNEDY INTL   PTCLDY    61  55  81 S5        30.21S
NEWARK/LIBERTY PTCLDY    66  56  70 SW7       30.20R
BRNX BOT. GARD   N/A     66  54  63 SW6       30.22R
TETERBORO      CLEAR     66  54  65 S8        30.19R
$$

NYZ177-179-078>081-261100-
LONG ISLAND NEW YORK

CITY           SKY/WX    TMP DP  RH WIND       PRES   REMARKS
FARMINGDALE    CLEAR     60  57  89 S8        30.22R
ISLIP          PTCLDY    60  57  89 SW10      30.21R
SHIRLEY        CLEAR     60  56  86 S9        30.23R
WESTHAMPTON    CLEAR     58  56  93 SW6       30.24R
MONTAUK POINT    N/A     59  55  87 S12G21    30.23S
$$

NYZ052-065-067-261100-
HUDSON VALLEY

CITY           SKY/WX    TMP DP  RH WIND       PRES   REMARKS
WHITE PLAINS   PTCLDY    59  53  80 S3        30.19R
NEWBURGH       PTCLDY    66  59  77 W8        30.18R
MONTGOMERY     PTCLDY    63  60  90 SW7       30.16R
POUGHKEEPSIE   PTCLDY    66  58  75 SE3       30.16R
ALBANY         PTCLDY    71  58  63 S10       30.10R
$$

NJZ001-105-106-008-010-013-015-019>022-104-261100-
NEW JERSEY

CITY           SKY/WX    TMP DP  RH WIND       PRES   REMARKS
NEWARK/LIBERTY PTCLDY    66  56  70 SW7       30.20R
TETERBORO      CLEAR     66  54  65 S8        30.19R
CALDWELL       CLEAR     64  53  67 VRB3      30.20R
MORRISTOWN     CLEAR     63  54  72 CALM      30.20R
SOMERVILLE     CLEAR     57  53  86 CALM      30.19R
SUSSEX         CLEAR     62  57  83 CALM      30.20R
ANDOVER          N/A     62  58  86 CALM      30.20R
TRENTON        CLEAR     61  56  83 SW3       30.21R
MILLVILLE      CLEAR     65  61  87 VRB3      30.24R
ATLANTIC CITY  CLEAR     63  59  87 SW7       30.24R
WRIGHTSTOWN    CLEAR     57  57  99 S5        30.20R
TOMS RIVER     CLEAR    N/A N/A N/A S3        30.23R
BELMAR         CLEAR     63  54  72 SW7       30.22S
$$

PAZ047>061-062-071-261100-
EASTERN PENNSYLVANIA

CITY           SKY/WX    TMP DP  RH WIND       PRES   REMARKS
PHILADELPHIA   PTCLDY    66  59  78 S9        30.22R
ALLENTOWN      CLEAR     60  57  89 NW3       30.20R
SCRANTON       PTCLDY    67  57  70 SW3       30.17S
$$

CTZ002-004>006-009-010-012-RIZ004-006-007-MAZ004-011-015-261100-
SOUTHERN NEW ENGLAND
 IN CT

CITY           SKY/WX    TMP DP  RH WIND       PRES   REMARKS
BRADLEY INTL   MOCLDY    65  53  65 S12       30.15R
HARTFORD       MOCLDY    65  52  62 S12       30.17R
DANBURY        CLEAR     62  53  72 SW5       30.20R
WTRBRY/OXFORD  PTCLDY    61  50  67 SW6       30.22R
BRIDGEPORT     CLEAR     60  55  83 SW5       30.20R
MERIDEN        CLEAR     61  54  77 S7        30.19R
NEW HAVEN      PTCLDY    60  56  86 S7        30.20S
CHESTER        FAIR      61  55  82 SW8       30.21R
GROTON         CLEAR     58  54  86 SW5       30.22R
WILLIMANTIC    MOCLDY    63  54  72 S6        30.19R

 IN RI

CITY           SKY/WX    TMP DP  RH WIND       PRES   REMARKS
PROVIDENCE     MOCLDY    62  55  77 S9        30.19S
BLOCK ISLAND   CLEAR     57  54  88 SW18      30.23S
WESTERLY       PTCLDY    58  55  90 S8        30.23R

 IN MA

CITY           SKY/WX    TMP DP  RH WIND       PRES   REMARKS
BOSTON         MOCLDY    64  53  67 SW18G24   30.13R
WORCESTER      MOCLDY    62  54  74 SW15      30.16R
WESTFIELD      PTCLDY    64  56  75 SE6       30.14R
PROVINCETOWN   MOCLDY    59  54  82 SW18      30.19R
NANTUCKET      PTCLDY    59  55  87 SW18      30.25S
$$

ANZ330-335-338-340-345-350-353-355-261100-
COASTAL MARINE OBSERVATIONS


STATION/POSITION TIME  SKY/WX   TEMP    WIND        PRES    VSBY  WAVE
                                AIR SEA DIR/SP/G                  HT/PER
                 (UTC)          (F)     (DEG/KT/KT) (MB)    (MI)  (FT/S)
NY HARB ENTRANCE 0950            59 56  200/ 14/ 16 1022.5          3/ 5
4S FIRE IS       0903               54                N/A           4/ 6
20S FIRE ISLAND  0950            58 55  210/ 14/ 16 1023.5          3/ 5
GREAT SOUTH BAY  0930            60 64  220/ 10/ 12   N/A
23SW MTP         0950            57 52  220/ 12/ 14 1023.8          4/ 6
HUDSON CANYON    NOT AVBL
KINGS POINT      0900            63 55  200/  8/ 10 1021.8
CENTRAL LI SOUND 0900            59 53  200/ 10/ 12   N/A
EASTERN LI SOUND 0900            58     210/ 12/ 14   N/A
ROBBINS REEF     0900            65     190/  6/  8 1021.4
$$


>>>>>>>>>>>>>>>>>>>>>>>>>>>> KEY <<<<<<<<<<<<<<<<<<<<<<<<<<<
>                                                          <
>     SKY/WX - SKY CONDITION/PRESENT WEATHER               <
>     TMP    - TEMPERATURE IN FAHRENHEIT                   <
>     DP     - DEWPOINT IN FAHRENHEIT                      <
>     RH     - RELATIVE HUMIDITY IN PERCENT                <
>     WIND   - DIRECTION AND SPEED IN MPH                  <
>     PRES   - MEAN SEA LEVEL PRESSURE IN INCHES OF HG     <
>     WCI    - WIND CHILL INDEX                            <
>     VSB    - VISIBILITY IN MILES                         <
>     HX     - HEAT INDEX                                  <
>     TC     - TEMPERATURE IN CELSIUS                      <
>     VRB    - VARIABLE WIND DIRECTION                     <
>                                                          <
>>>>>>>>>>>>>>>>>>>>>>>>>>>> KEY <<<<<<<<<<<<<<<<<<<<<<<<<<<




USA.gov is the U.S. government's official web portal to all federal, state and local government web resources and services.